Weather History for KRBO - February, 2014

Change the Weather History Date:

Tuesday, February 18, 2014

  Actual Average (KCRP) Record (KCRP)
Temperature  
Mean Temperature 74 °F 61 °F  
Max Temperature 83 °F 71 °F 94 °F (1986)
Min Temperature 65 °F 51 °F 25 °F (1936)
Degree Days  
Heating Degree Days 0 6  
Month to date heating degree days 124  
Since 1 July heating degree days 751  
Cooling Degree Days 9 2  
Month to date cooling degree days 29  
Year to date cooling degree days 59  
Growing Degree Days 24 (Base 50)    
Moisture  
Dew Point 65 °F    
Average Humidity 79    
Maximum Humidity 97    
Minimum Humidity 51    
Precipitation  
Precipitation 0.00 in 0.07 in 1.59 in (1905)
Month to date precipitation 1.20  
Year to date precipitation 2.74  
Snow  
Snow 0.00 in - - ()
Month to date snowfall  
Since 1 July snowfall  
Snow Depth -    
Sea Level Pressure  
Sea Level Pressure 30.00 in    
Wind  
Wind Speed 12 mph (SSE)    
Max Wind Speed 23 mph    
Max Gust Speed 30 mph    
Visibility 8 miles    
Events Fog    
T = Trace of Precipitation, MM = Missing Value Source: NWS Daily Summary

Daily Weather History Graph

Daily Weather History Graph

Search for Another Location

Airport or City:

Trip Planner

Search our weather history database for the weather conditions in past years. The results will help you decide how hot, cold, wet, or windy it might be!

Date:

Astronomy

Feb. 18, 2014 Rise Set
Actual Time 7:05 AM CST 6:24 PM CST
Civil Twilight 6:41 AM CST 6:47 PM CST
Nautical Twilight 6:14 AM CST 7:15 PM CST
Astronomical Twilight 5:47 AM CST 7:42 PM CST
Moon 9:54 PM CST (2/18) 9:00 AM CST (2/18)
Length of Visible Light 12h 06m
Length of Day
11h 18m
Waning Gibbous, 87% of the Moon is Illuminated
Feb 18
Waning Gibbous
Feb 22
Last Quarter
Mar 1
New
Mar 8
First Quarter
Mar 16
Full

Hourly Weather History & Observations

Time (CST) Temp. Heat Index Dew Point Humidity Pressure Visibility Wind Dir Wind Speed Gust Speed Precip Events Conditions
12:15 AM 69.6 °F - 67.1 °F 92% 30.07 in 10.0 mi SE 10.4 mph - N/A   Overcast
12:35 AM 69.3 °F - 66.9 °F 92% 30.07 in 10.0 mi SE 9.2 mph - N/A   Overcast
12:55 AM 69.1 °F - 67.1 °F 93% 30.07 in 7.0 mi SE 6.9 mph - N/A   Overcast
1:15 AM 69.1 °F - 67.1 °F 93% 30.07 in 7.0 mi SSE 5.8 mph - N/A   Overcast
1:35 AM 68.9 °F - 67.1 °F 94% 30.07 in 4.0 mi SSE 9.2 mph - N/A   Overcast
1:55 AM 68.4 °F - 67.1 °F 96% 30.07 in 1.8 mi SSE 5.8 mph - N/A   Overcast
2:15 AM 68.4 °F - 67.1 °F 96% 30.06 in 2.5 mi SE 6.9 mph - N/A   Overcast
2:35 AM 68.5 °F - 67.3 °F 96% 30.06 in 2.0 mi ESE 4.6 mph - N/A   Overcast
2:55 AM 68.4 °F - 67.1 °F 96% 30.05 in 1.2 mi ESE 5.8 mph - N/A   Overcast
3:15 AM 68.4 °F - 67.3 °F 96% 30.05 in 0.8 mi SE 4.6 mph - N/A   Overcast
3:35 AM 68.4 °F - 67.3 °F 96% 30.05 in 0.8 mi SE 3.5 mph - N/A   Overcast
3:55 AM 68.4 °F - 67.3 °F 96% 30.04 in 0.8 mi ESE 3.5 mph - N/A   Overcast
4:15 AM 68.4 °F - 67.3 °F 96% 30.05 in 0.8 mi Calm Calm - N/A   Overcast
4:35 AM 68.2 °F - 67.1 °F 96% 30.04 in 0.5 mi East 3.5 mph - N/A Fog Fog
4:55 AM 68.2 °F - 67.1 °F 96% 30.04 in 0.5 mi East 4.6 mph - N/A Fog Fog
5:15 AM 68.0 °F - 67.1 °F 97% 30.04 in 0.5 mi ESE 5.8 mph - N/A Fog Fog
5:35 AM 68.2 °F - 67.3 °F 97% 30.04 in 0.8 mi SE 8.1 mph - N/A   Overcast
5:55 AM 68.4 °F - 67.5 °F 97% 30.04 in 4.0 mi SE 6.9 mph - N/A   Overcast
6:15 AM 68.4 °F - 67.5 °F 97% 30.04 in 5.0 mi SSE 9.2 mph - N/A   Overcast
6:35 AM 68.2 °F - 67.3 °F 97% 30.04 in 5.0 mi SSE 8.1 mph - N/A   Overcast
6:55 AM 68.0 °F - 66.7 °F 96% 30.05 in 3.0 mi SSE 9.2 mph - N/A   Overcast
7:15 AM 67.3 °F - 66.4 °F 97% 30.05 in 0.5 mi SSE 8.1 mph - N/A Fog Fog
7:35 AM 67.3 °F - 66.4 °F 97% 30.05 in 1.0 mi SSE 9.2 mph - N/A   Overcast
7:55 AM 67.8 °F - 66.7 °F 96% 30.05 in 1.8 mi SE 9.2 mph - N/A   Overcast
8:15 AM 68.0 °F - 66.9 °F 96% 30.06 in 5.0 mi SE 11.5 mph - N/A   Overcast
8:35 AM 68.9 °F - 67.6 °F 96% 30.06 in 7.0 mi SSE 10.4 mph - N/A   Mostly Cloudy
8:55 AM 70.5 °F - 67.1 °F 89% 30.06 in 10.0 mi South 12.7 mph - N/A   Scattered Clouds
9:15 AM 72.5 °F - 67.3 °F 84% 30.06 in 10.0 mi SSE 17.3 mph - N/A   Scattered Clouds
9:35 AM 72.9 °F - 67.1 °F 82% 30.05 in 10.0 mi South 18.4 mph - N/A   Scattered Clouds
9:55 AM 74.3 °F - 66.6 °F 77% 30.05 in 10.0 mi South 23.0 mph - N/A   Scattered Clouds
10:15 AM 76.1 °F - 66.2 °F 71% 30.05 in 10.0 mi South 23.0 mph 26.5 mph N/A   Scattered Clouds
10:35 AM 76.5 °F - 65.1 °F 68% 30.06 in 10.0 mi South 19.6 mph 26.5 mph N/A   Mostly Cloudy
10:55 AM 77.7 °F - 65.3 °F 65% 30.05 in 10.0 mi SSE 20.7 mph 27.6 mph N/A   Mostly Cloudy
11:15 AM 78.1 °F - 64.8 °F 63% 30.04 in 10.0 mi South 23.0 mph 29.9 mph N/A   Scattered Clouds
11:35 AM 79.2 °F - 64.2 °F 60% 30.03 in 10.0 mi SSE 21.9 mph 27.6 mph N/A   Scattered Clouds
11:55 AM 80.6 °F 82.2 °F 63.9 °F 57% 30.03 in 10.0 mi South 16.1 mph 26.5 mph N/A   Mostly Cloudy
12:15 PM 81.1 °F 82.5 °F 63.3 °F 55% 30.02 in 10.0 mi South 19.6 mph 26.5 mph N/A   Mostly Cloudy
12:35 PM 81.1 °F 82.4 °F 63.0 °F 54% 30.00 in 10.0 mi SSE 18.4 mph 27.6 mph N/A   Mostly Cloudy
12:55 PM 81.7 °F 82.7 °F 62.6 °F 52% 29.99 in 10.0 mi South 17.3 mph 20.7 mph N/A   Mostly Cloudy
1:15 PM 82.2 °F 83.2 °F 62.4 °F 51% 29.98 in 10.0 mi South 12.7 mph 24.2 mph N/A   Scattered Clouds
1:35 PM 82.0 °F 83.6 °F 64.4 °F 55% 29.97 in 10.0 mi SSE 13.8 mph 20.7 mph N/A   Scattered Clouds
1:55 PM 81.5 °F 83.1 °F 64.2 °F 56% 29.96 in 10.0 mi SSE 18.4 mph 21.9 mph N/A   Scattered Clouds
2:15 PM 82.8 °F 84.0 °F 63.5 °F 52% 29.95 in 10.0 mi SSE 16.1 mph 21.9 mph N/A   Scattered Clouds
2:35 PM 82.6 °F 84.1 °F 64.2 °F 54% 29.94 in 10.0 mi SSE 17.3 mph 24.2 mph N/A   Scattered Clouds
2:55 PM 83.7 °F 85.1 °F 64.2 °F 52% 29.93 in 10.0 mi SSE 16.1 mph 24.2 mph N/A   Scattered Clouds
3:15 PM 83.3 °F 84.8 °F 64.4 °F 53% 29.92 in 10.0 mi SSE 17.3 mph 23.0 mph N/A   Clear
3:35 PM 83.3 °F 84.8 °F 64.6 °F 53% 29.92 in 10.0 mi SSE 20.7 mph 25.3 mph N/A   Clear
3:55 PM 82.6 °F 84.1 °F 64.6 °F 54% 29.91 in 10.0 mi SE 21.9 mph 27.6 mph N/A   Clear
4:15 PM 81.0 °F 82.6 °F 64.6 °F 57% 29.91 in 10.0 mi SE 23.0 mph 26.5 mph N/A   Clear
4:35 PM 80.2 °F 81.9 °F 64.4 °F 58% 29.91 in 10.0 mi SSE 21.9 mph 26.5 mph N/A   Clear
4:55 PM 79.0 °F - 63.9 °F 60% 29.91 in 10.0 mi SSE 23.0 mph 27.6 mph N/A   Clear
5:15 PM 78.1 °F - 63.7 °F 61% 29.92 in 10.0 mi SSE 19.6 mph 25.3 mph N/A   Clear
5:35 PM 77.2 °F - 63.1 °F 62% 29.92 in 10.0 mi SSE 20.7 mph 25.3 mph N/A   Clear
5:55 PM 75.6 °F - 62.8 °F 64% 29.92 in 10.0 mi SSE 19.6 mph 25.3 mph N/A   Clear
6:15 PM 74.3 °F - 62.6 °F 67% 29.92 in 10.0 mi SSE 18.4 mph - N/A   Clear
6:35 PM 72.9 °F - 62.6 °F 70% 29.93 in 10.0 mi SSE 23.0 mph 26.5 mph N/A   Clear
6:55 PM 71.8 °F - 62.2 °F 72% 29.93 in 10.0 mi SSE 19.6 mph 27.6 mph N/A   Clear
7:15 PM 70.9 °F - 62.6 °F 75% 29.94 in 10.0 mi SSE 18.4 mph 24.2 mph N/A   Clear
7:35 PM 70.5 °F - 63.0 °F 77% 29.95 in 10.0 mi SSE 17.3 mph 23.0 mph N/A   Clear
7:55 PM 69.8 °F - 63.5 °F 80% 29.95 in 10.0 mi SSE 18.4 mph - N/A   Clear
8:15 PM 69.4 °F - 63.5 °F 81% 29.95 in 10.0 mi SSE 17.3 mph - N/A   Clear
8:35 PM 69.1 °F - 63.7 °F 83% 29.95 in 10.0 mi SSE 18.4 mph - N/A   Clear
8:55 PM 68.9 °F - 63.9 °F 84% 29.96 in 10.0 mi SSE 17.3 mph 25.3 mph N/A   Clear
9:15 PM 68.4 °F - 64.4 °F 87% 29.97 in 10.0 mi SSE 16.1 mph 21.9 mph N/A   Clear
9:35 PM 68.0 °F - 64.4 °F 88% 29.97 in 10.0 mi SSE 17.3 mph - N/A   Clear
9:55 PM 68.0 °F - 64.4 °F 88% 29.97 in 10.0 mi SSE 16.1 mph - N/A   Clear
10:15 PM 67.5 °F - 64.0 °F 89% 29.97 in 10.0 mi SSE 13.8 mph - N/A   Clear
10:35 PM 66.7 °F - 63.9 °F 90% 29.97 in 10.0 mi SSE 11.5 mph - N/A   Clear
10:55 PM 66.2 °F - 63.5 °F 91% 29.97 in 10.0 mi SSE 10.4 mph - N/A   Clear
11:35 PM 65.5 °F - 63.5 °F 93% 29.96 in 10.0 mi South 10.4 mph - N/A   Clear
11:55 PM 65.5 °F - 63.5 °F 93% 29.95 in 10.0 mi South 11.5 mph - N/A   Clear